Tracking 30990 objects as of 8-Jul-2025
HD Live streaming from Space Station
objects crossing your sky now

CZ-2D R/B

Track CZ-2D R/B now!
10-day predictions


NORAD ID: 36597
Int'l Code: 2010-027B
Perigee: 534.4 km
Apogee: 608.8 km
Inclination: 98.0 °
Period: 95.9 minutes
Semi major axis: 6942 km
RCS: 8.7925 m2 (large)
Launch date: June 15, 2010
Source: People's Republic of China (PRC)
Launch site: Jiuquan Satellite Launch Center, China (JSC)

Note: This is a ROCKET BODY
Your satellite tracking list
Your tracking list is empty




NASA's NSSDC Master Catalog

Two Line Element Set (TLE):
1 36597U 10027B   25188.94695840  .00000981  00000-0  80293-4 0  9993
2 36597  98.0204 202.8066 0053561 355.2830   4.7881 15.00794499819212
Source of the keplerian elements: AFSPC